JMP300 EDLP-LHPR

Flight info

Callsign JMP300
Flight time N/A
Altitude 13000
Route WRB1W WRB DCT MASEK L604 SULUS Z650 VEMUT DCT GIMBO DCT GASNA DCT GYR
Aircraft C208/L-SDFGR/C

Departure

Time 2026-05-06 14:10
Airport Paderborn Lippstadt Airport (EDLP)

Arrival

Time N/A
Airport Győr-Pér Airport (LHPR)
Time Latitude Longitude Altitude Speed Heading
2026-05-06 13:51 51.60967 8.61571 729 ft 0 kts 237°
2026-05-06 14:04 51.60965 8.61526 729 ft 8 kts 316°
2026-05-06 14:05 51.61028 8.61545 729 ft 15 kts 57°
2026-05-06 14:05 51.61104 8.61533 722 ft 19 kts 327°
2026-05-06 14:05 51.61177 8.61547 716 ft 13 kts 57°
2026-05-06 14:05 51.61243 8.61707 716 ft 21 kts 56°
2026-05-06 14:06 51.61332 8.61930 719 ft 24 kts 55°
2026-05-06 14:06 51.61408 8.62116 716 ft 17 kts 56°
2026-05-06 14:06 51.61485 8.62301 704 ft 24 kts 55°
2026-05-06 14:06 51.61587 8.62554 699 ft 29 kts 57°
2026-05-06 14:07 51.61682 8.62787 690 ft 22 kts 57°
2026-05-06 14:07 51.61763 8.62988 683 ft 21 kts 55°
2026-05-06 14:07 51.61860 8.63067 680 ft 13 kts 343°
2026-05-06 14:07 51.61919 8.62969 682 ft 16 kts 286°
2026-05-06 14:08 51.61918 8.62879 682 ft 0 kts 238°
2026-05-06 14:08 51.61918 8.62878 683 ft 0 kts 238°
2026-05-06 14:08 51.61834 8.62674 687 ft 48 kts 236°
2026-05-06 14:09 51.61569 8.62027 702 ft 88 kts 238°
2026-05-06 14:09 51.61201 8.61136 839 ft 101 kts 241°
2026-05-06 14:09 51.60794 8.60067 951 ft 119 kts 240°
2026-05-06 14:09 51.60323 8.58952 1219 ft 122 kts 236°
2026-05-06 14:10 51.59838 8.57819 1482 ft 124 kts 237°
2026-05-06 14:10 51.59358 8.56662 1755 ft 125 kts 239°
2026-05-06 14:10 51.58893 8.55481 2026 ft 125 kts 241°
2026-05-06 14:10 51.58422 8.54300 2279 ft 125 kts 240°
2026-05-06 14:11 51.57939 8.53131 2544 ft 125 kts 240°
2026-05-06 14:11 51.57459 8.51961 2802 ft 125 kts 239°
2026-05-06 14:11 51.56978 8.50787 3067 ft 126 kts 240°
2026-05-06 14:11 51.56366 8.49795 3320 ft 129 kts 209°
2026-05-06 14:12 51.55464 8.49713 3584 ft 137 kts 165°
2026-05-06 14:12 51.54596 8.50361 3847 ft 138 kts 156°
2026-05-06 14:12 51.53738 8.51060 4120 ft 139 kts 157°
2026-05-06 14:12 51.52875 8.51735 4389 ft 141 kts 158°
2026-05-06 14:13 51.51988 8.52419 4686 ft 141 kts 158°
2026-05-06 14:13 51.51150 8.53205 4977 ft 140 kts 146°
2026-05-06 14:13 51.50412 8.54222 5281 ft 139 kts 142°
2026-05-06 14:13 51.49714 8.55286 5577 ft 138 kts 141°
2026-05-06 14:14 51.49033 8.56349 5892 ft 136 kts 142°
2026-05-06 14:14 51.48362 8.57397 6202 ft 133 kts 143°
2026-05-06 14:14 51.47702 8.58434 6495 ft 132 kts 143°
2026-05-06 14:14 51.47053 8.59459 6786 ft 130 kts 143°
2026-05-06 14:15 51.46407 8.60472 7094 ft 130 kts 144°
2026-05-06 14:15 51.45760 8.61487 7397 ft 130 kts 144°
2026-05-06 14:15 51.45113 8.62496 7686 ft 129 kts 144°
2026-05-06 14:15 51.44481 8.63492 7977 ft 126 kts 144°
2026-05-06 14:16 51.43865 8.64462 8269 ft 122 kts 144°
2026-05-06 14:16 51.43270 8.65403 8554 ft 118 kts 144°
2026-05-06 14:16 51.42678 8.66305 8802 ft 116 kts 147°
2026-05-06 14:16 51.42093 8.67193 9061 ft 115 kts 146°
2026-05-06 14:17 51.41518 8.68084 9299 ft 116 kts 146°
2026-05-06 14:17 51.40928 8.68991 9507 ft 119 kts 146°
2026-05-06 14:17 51.40330 8.69909 9711 ft 120 kts 146°
2026-05-06 14:17 51.39727 8.70838 9906 ft 121 kts 146°
2026-05-06 14:18 51.39119 8.71780 10093 ft 122 kts 146°
2026-05-06 14:18 51.38520 8.72714 10279 ft 122 kts 146°
2026-05-06 14:18 51.37906 8.73661 10469 ft 123 kts 146°
2026-05-06 14:18 51.37298 8.74607 10649 ft 121 kts 146°
2026-05-06 14:19 51.36693 8.75549 10854 ft 121 kts 146°
2026-05-06 14:19 51.36086 8.76492 11055 ft 121 kts 146°
2026-05-06 14:19 51.35684 8.77114 11189 ft 122 kts 146°
2026-05-06 14:19 51.35074 8.78057 11391 ft 122 kts 146°
2026-05-06 14:20 51.34466 8.79001 11595 ft 122 kts 146°
2026-05-06 14:20 51.33855 8.79943 11802 ft 122 kts 146°
2026-05-06 14:20 51.33242 8.80888 12012 ft 123 kts 146°
2026-05-06 14:20 51.32618 8.81851 12168 ft 127 kts 146°
2026-05-06 14:21 51.31970 8.82838 12323 ft 131 kts 146°
2026-05-06 14:21 51.31302 8.83856 12480 ft 134 kts 145°
2026-05-06 14:21 51.30620 8.84900 12635 ft 137 kts 145°
2026-05-06 14:21 51.29919 8.85967 12733 ft 143 kts 145°
2026-05-06 14:22 51.29169 8.87092 12764 ft 152 kts 145°
2026-05-06 14:22 51.28381 8.88294 12782 ft 161 kts 143°
2026-05-06 14:22 51.27563 8.89584 12781 ft 168 kts 142°
2026-05-06 14:22 51.26712 8.90906 12775 ft 173 kts 143°
2026-05-06 14:23 51.25854 8.92236 12892 ft 170 kts 143°
2026-05-06 14:23 51.24984 8.93577 12815 ft 178 kts 143°
2026-05-06 14:23 51.24083 8.94950 12884 ft 176 kts 143°
2026-05-06 14:23 51.23209 8.96300 12916 ft 176 kts 142°
2026-05-06 14:24 51.22307 8.97677 12838 ft 181 kts 142°
2026-05-06 14:24 51.21390 8.99072 12803 ft 183 kts 142°
2026-05-06 14:24 51.20474 9.00478 12782 ft 183 kts 142°
2026-05-06 14:24 51.19563 9.01877 12762 ft 181 kts 142°
2026-05-06 14:25 51.18662 9.03258 12755 ft 178 kts 142°
2026-05-06 14:25 51.17780 9.04612 12761 ft 175 kts 142°
2026-05-06 14:25 51.16999 9.06107 12762 ft 177 kts 131°
2026-05-06 14:25 51.16342 9.07764 12768 ft 177 kts 127°
2026-05-06 14:26 51.15732 9.09467 12769 ft 177 kts 125°
2026-05-06 14:26 51.15143 9.11185 12769 ft 176 kts 125°
2026-05-06 14:26 51.14549 9.12885 12769 ft 175 kts 126°
2026-05-06 14:26 51.13952 9.14548 12771 ft 175 kts 126°
2026-05-06 14:27 51.13341 9.16222 12776 ft 175 kts 127°
2026-05-06 14:27 51.12721 9.17894 12775 ft 175 kts 127°
2026-05-06 14:27 51.12098 9.19560 12773 ft 175 kts 127°
2026-05-06 14:27 51.11473 9.21222 12774 ft 175 kts 127°
2026-05-06 14:28 51.10848 9.22883 12774 ft 175 kts 127°
2026-05-06 14:28 51.10223 9.24540 12771 ft 175 kts 127°
2026-05-06 14:28 51.09599 9.26194 12770 ft 174 kts 127°
2026-05-06 14:28 51.08977 9.27846 12773 ft 174 kts 127°
2026-05-06 14:29 51.08350 9.29502 12781 ft 175 kts 127°
2026-05-06 14:29 51.07720 9.31164 12777 ft 176 kts 127°
2026-05-06 14:29 51.07089 9.32830 12774 ft 176 kts 127°
2026-05-06 14:29 51.06458 9.34496 12771 ft 176 kts 127°
2026-05-06 14:30 51.05827 9.36159 12770 ft 176 kts 127°
2026-05-06 14:30 51.05197 9.37823 12746 ft 175 kts 127°
2026-05-06 14:30 51.04569 9.39480 12751 ft 175 kts 127°
2026-05-06 14:30 51.03939 9.41141 12753 ft 175 kts 127°
2026-05-06 14:31 51.03308 9.42800 12761 ft 177 kts 127°
2026-05-06 14:31 51.02669 9.44481 12762 ft 179 kts 127°
2026-05-06 14:31 51.02022 9.46171 12749 ft 179 kts 127°
2026-05-06 14:31 51.01375 9.47866 12739 ft 179 kts 127°
2026-05-06 14:32 51.00734 9.49553 12736 ft 178 kts 127°
2026-05-06 14:32 51.00095 9.51234 12736 ft 177 kts 127°
2026-05-06 14:32 50.99462 9.52903 12734 ft 176 kts 127°
2026-05-06 14:32 50.98831 9.54560 12743 ft 175 kts 127°
2026-05-06 14:33 50.98200 9.56217 12744 ft 175 kts 127°
2026-05-06 14:33 50.97576 9.57850 12743 ft 175 kts 127°
2026-05-06 14:33 50.96943 9.59504 12745 ft 175 kts 127°
2026-05-06 14:33 50.96310 9.61159 12746 ft 176 kts 127°
2026-05-06 14:34 50.95677 9.62814 12748 ft 176 kts 127°
2026-05-06 14:34 50.95043 9.64468 12748 ft 175 kts 127°
2026-05-06 14:34 50.94409 9.66120 12749 ft 176 kts 127°
2026-05-06 14:34 50.93772 9.67778 12750 ft 176 kts 127°
2026-05-06 14:35 50.93133 9.69441 12745 ft 177 kts 127°
2026-05-06 14:35 50.92494 9.71105 12739 ft 176 kts 126°
2026-05-06 14:35 50.91857 9.72766 12742 ft 176 kts 126°
2026-05-06 14:35 50.91220 9.74422 12739 ft 176 kts 126°
2026-05-06 14:36 50.90588 9.76072 12739 ft 175 kts 126°
2026-05-06 14:36 50.89954 9.77720 12745 ft 175 kts 127°
2026-05-06 14:36 50.89320 9.79367 12743 ft 175 kts 127°
2026-05-06 14:36 50.88684 9.81015 12745 ft 175 kts 127°
2026-05-06 14:37 50.88047 9.82667 12745 ft 176 kts 126°
2026-05-06 14:37 50.87407 9.84322 12745 ft 176 kts 126°
2026-05-06 14:37 50.86767 9.85978 12743 ft 176 kts 126°
2026-05-06 14:37 50.86127 9.87634 12742 ft 176 kts 126°
2026-05-06 14:38 50.85488 9.89286 12740 ft 176 kts 127°
2026-05-06 14:38 50.84850 9.90935 12731 ft 175 kts 127°
2026-05-06 14:38 50.84215 9.92577 12738 ft 175 kts 127°
2026-05-06 14:38 50.83582 9.94217 12742 ft 175 kts 127°
2026-05-06 14:39 50.82946 9.95857 12743 ft 175 kts 127°
2026-05-06 14:39 50.82309 9.97499 12745 ft 175 kts 127°
2026-05-06 14:39 50.81671 9.99144 12742 ft 175 kts 127°
2026-05-06 14:39 50.81032 10.00785 12741 ft 175 kts 127°
2026-05-06 14:40 50.80395 10.02427 12745 ft 175 kts 127°
2026-05-06 14:40 50.79759 10.04064 12739 ft 174 kts 127°
2026-05-06 14:40 50.79125 10.05692 12741 ft 174 kts 127°
2026-05-06 14:40 50.78493 10.07318 12749 ft 174 kts 127°
2026-05-06 14:41 50.77857 10.08950 12752 ft 175 kts 127°
2026-05-06 14:41 50.77218 10.10587 12746 ft 175 kts 127°
2026-05-06 14:41 50.76581 10.12221 12741 ft 174 kts 127°
2026-05-06 14:41 50.75947 10.13847 12743 ft 174 kts 127°
2026-05-06 14:42 50.75311 10.15471 12746 ft 173 kts 127°
2026-05-06 14:42 50.74678 10.17093 12751 ft 174 kts 127°
2026-05-06 14:42 50.74042 10.18722 12751 ft 175 kts 127°
2026-05-06 14:42 50.73402 10.20355 12751 ft 175 kts 127°
2026-05-06 14:43 50.72761 10.21991 12753 ft 175 kts 127°
2026-05-06 14:43 50.72120 10.23627 12748 ft 175 kts 127°
2026-05-06 14:43 50.71479 10.25261 12750 ft 175 kts 127°
2026-05-06 14:43 50.70839 10.26891 12745 ft 174 kts 127°
2026-05-06 14:44 50.70201 10.28515 12745 ft 174 kts 127°
2026-05-06 14:44 50.69565 10.30135 12741 ft 173 kts 127°
2026-05-06 14:44 50.68931 10.31751 12747 ft 173 kts 127°
2026-05-06 14:45 50.67658 10.34985 12746 ft 173 kts 127°
2026-05-06 14:45 50.67024 10.36599 12754 ft 173 kts 127°
2026-05-06 14:45 50.66387 10.38217 12756 ft 174 kts 127°
2026-05-06 14:45 50.65745 10.39841 12754 ft 175 kts 127°
2026-05-06 14:46 50.65102 10.41466 12751 ft 175 kts 127°
2026-05-06 14:46 50.64461 10.43089 12752 ft 174 kts 127°
2026-05-06 14:46 50.63822 10.44708 12748 ft 174 kts 127°
2026-05-06 14:46 50.63185 10.46322 12753 ft 174 kts 127°
2026-05-06 14:47 50.62547 10.47938 12754 ft 174 kts 127°
2026-05-06 14:47 50.61908 10.49551 12757 ft 173 kts 127°
2026-05-06 14:47 50.61270 10.51157 12758 ft 173 kts 127°
2026-05-06 14:47 50.60632 10.52764 12761 ft 173 kts 127°
2026-05-06 14:48 50.59995 10.54375 12761 ft 174 kts 127°
2026-05-06 14:48 50.59354 10.55991 12759 ft 174 kts 127°
2026-05-06 14:48 50.58713 10.57610 12754 ft 174 kts 127°
2026-05-06 14:48 50.58074 10.59224 12748 ft 173 kts 127°
2026-05-06 14:49 50.57434 10.60827 12757 ft 173 kts 127°
2026-05-06 14:49 50.56794 10.62431 12761 ft 173 kts 127°
2026-05-06 14:49 50.56154 10.64040 12762 ft 174 kts 127°
2026-05-06 14:49 50.55511 10.65656 12768 ft 174 kts 127°
2026-05-06 14:50 50.54866 10.67274 12767 ft 175 kts 127°
2026-05-06 14:50 50.54220 10.68891 12764 ft 175 kts 127°
2026-05-06 14:50 50.53575 10.70509 12766 ft 175 kts 127°
2026-05-06 14:50 50.52929 10.72128 12762 ft 175 kts 127°
2026-05-06 14:51 50.52287 10.73740 12747 ft 173 kts 128°
2026-05-06 14:51 50.51648 10.75339 12757 ft 173 kts 128°
2026-05-06 14:51 50.51012 10.76934 12765 ft 173 kts 128°
2026-05-06 14:51 50.50372 10.78533 12765 ft 173 kts 128°
2026-05-06 14:52 50.49730 10.80135 12769 ft 174 kts 129°
2026-05-06 14:52 50.49085 10.81739 12768 ft 174 kts 128°
2026-05-06 14:52 50.48440 10.83345 12772 ft 174 kts 128°
2026-05-06 14:52 50.47792 10.84957 12770 ft 175 kts 127°
2026-05-06 14:53 50.47152 10.86549 12769 ft 175 kts 128°
2026-05-06 14:53 50.46501 10.88167 12771 ft 175 kts 128°
2026-05-06 14:53 50.45849 10.89787 12769 ft 176 kts 128°
2026-05-06 14:53 50.45198 10.91410 12766 ft 176 kts 128°
2026-05-06 14:54 50.44546 10.93030 12763 ft 175 kts 128°
2026-05-06 14:54 50.43896 10.94646 12761 ft 175 kts 128°
2026-05-06 14:54 50.43249 10.96253 12765 ft 174 kts 128°
2026-05-06 14:54 50.42602 10.97860 12767 ft 174 kts 127°
2026-05-06 14:55 50.41957 10.99462 12767 ft 174 kts 128°
2026-05-06 14:55 50.41310 11.01064 12767 ft 174 kts 128°
2026-05-06 14:55 50.40663 11.02666 12768 ft 174 kts 128°
2026-05-06 14:55 50.40015 11.04270 12767 ft 174 kts 129°
2026-05-06 14:56 50.39366 11.05874 12771 ft 175 kts 128°
2026-05-06 14:56 50.38714 11.07484 12772 ft 175 kts 128°
2026-05-06 14:56 50.38061 11.09094 12768 ft 175 kts 128°
2026-05-06 14:56 50.37407 11.10706 12765 ft 175 kts 128°
2026-05-06 14:57 50.36755 11.12314 12768 ft 175 kts 128°
2026-05-06 14:57 50.36102 11.13922 12760 ft 175 kts 128°
2026-05-06 14:57 50.35449 11.15529 12760 ft 174 kts 128°
2026-05-06 14:57 50.34803 11.17125 12763 ft 174 kts 128°
2026-05-06 14:58 50.34156 11.18718 12764 ft 173 kts 128°
2026-05-06 14:58 50.33510 11.20306 12766 ft 173 kts 128°
2026-05-06 14:58 50.32864 11.21893 12769 ft 173 kts 127°
2026-05-06 14:58 50.32217 11.23481 12770 ft 173 kts 127°
2026-05-06 14:59 50.31570 11.25069 12768 ft 173 kts 127°
2026-05-06 14:59 50.30921 11.26659 12774 ft 174 kts 128°
2026-05-06 14:59 50.30279 11.28233 12772 ft 174 kts 128°
2026-05-06 14:59 50.29628 11.29826 12766 ft 174 kts 128°
2026-05-06 15:00 50.28977 11.31420 12774 ft 174 kts 128°
2026-05-06 15:00 50.28325 11.33013 12776 ft 175 kts 128°
2026-05-06 15:00 50.27668 11.34616 12781 ft 175 kts 127°
2026-05-06 15:00 50.27011 11.36221 12778 ft 176 kts 128°
2026-05-06 15:01 50.26353 11.37831 12776 ft 175 kts 127°
2026-05-06 15:01 50.25695 11.39434 12772 ft 175 kts 128°
2026-05-06 15:01 50.25041 11.41031 12776 ft 174 kts 128°
2026-05-06 15:01 50.24386 11.42629 12782 ft 175 kts 128°
2026-05-06 15:02 50.23730 11.44229 12784 ft 175 kts 128°
2026-05-06 15:02 50.23070 11.45832 12780 ft 175 kts 128°
2026-05-06 15:02 50.22415 11.47432 12778 ft 175 kts 127°
2026-05-06 15:02 50.21760 11.49027 12777 ft 174 kts 128°
2026-05-06 15:03 50.21106 11.50616 12779 ft 174 kts 128°
2026-05-06 15:03 50.20455 11.52197 12780 ft 173 kts 128°
2026-05-06 15:03 50.19804 11.53779 12782 ft 173 kts 128°
2026-05-06 15:03 50.19374 11.54823 12777 ft 172 kts 129°
2026-05-06 15:04 50.18728 11.56385 12775 ft 171 kts 129°
2026-05-06 15:04 50.18088 11.57938 12785 ft 169 kts 129°
2026-05-06 15:04 50.17452 11.59481 12785 ft 169 kts 129°
2026-05-06 15:04 50.16817 11.61023 12791 ft 169 kts 129°
2026-05-06 15:05 50.16179 11.62567 12784 ft 169 kts 129°
2026-05-06 15:05 50.15539 11.64110 12785 ft 170 kts 129°
2026-05-06 15:05 50.14899 11.65654 12788 ft 170 kts 129°
2026-05-06 15:05 50.14259 11.67203 12785 ft 170 kts 129°
2026-05-06 15:06 50.13618 11.68747 12790 ft 170 kts 129°
2026-05-06 15:06 50.12978 11.70292 12785 ft 170 kts 129°
2026-05-06 15:06 50.12339 11.71836 12786 ft 169 kts 129°
2026-05-06 15:06 50.11699 11.73378 12788 ft 170 kts 129°
2026-05-06 15:07 50.11058 11.74922 12782 ft 169 kts 129°
2026-05-06 15:07 50.10418 11.76461 12784 ft 169 kts 129°
2026-05-06 15:07 50.09778 11.78001 12785 ft 169 kts 129°
2026-05-06 15:07 50.09139 11.79538 12781 ft 169 kts 129°
2026-05-06 15:08 50.08500 11.81073 12780 ft 168 kts 129°
2026-05-06 15:08 50.07862 11.82603 12782 ft 168 kts 129°
2026-05-06 15:08 50.07227 11.84130 12780 ft 168 kts 129°
2026-05-06 15:08 50.06591 11.85658 12779 ft 168 kts 129°
2026-05-06 15:09 50.05956 11.87184 12771 ft 167 kts 129°
2026-05-06 15:09 50.05324 11.88700 12774 ft 167 kts 129°
2026-05-06 15:09 50.04689 11.90218 12785 ft 168 kts 129°
2026-05-06 15:09 50.04050 11.91742 12781 ft 168 kts 129°
2026-05-06 15:10 50.03411 11.93268 12782 ft 169 kts 129°
2026-05-06 15:10 50.02770 11.94805 12774 ft 170 kts 132°
2026-05-06 15:10 50.02122 11.96351 12774 ft 171 kts 132°
2026-05-06 15:10 50.01470 11.97904 12767 ft 172 kts 132°
2026-05-06 15:11 50.00816 11.99459 12767 ft 172 kts 132°
2026-05-06 15:11 50.00163 12.01017 12765 ft 172 kts 132°
2026-05-06 15:11 49.99509 12.02576 12767 ft 172 kts 132°
2026-05-06 15:11 49.98857 12.04131 12767 ft 172 kts 132°
2026-05-06 15:12 49.98202 12.05691 12764 ft 172 kts 132°
2026-05-06 15:12 49.97548 12.07247 12761 ft 172 kts 132°
2026-05-06 15:12 49.96893 12.08803 12760 ft 172 kts 132°
2026-05-06 15:12 49.96246 12.10338 12755 ft 172 kts 132°
2026-05-06 15:13 49.95580 12.11917 12761 ft 173 kts 132°
2026-05-06 15:13 49.94920 12.13480 12756 ft 173 kts 132°
2026-05-06 15:13 49.94259 12.15045 12753 ft 173 kts 132°
2026-05-06 15:13 49.93600 12.16609 12746 ft 173 kts 132°
2026-05-06 15:14 49.92952 12.18140 12755 ft 172 kts 132°
2026-05-06 15:14 49.92297 12.19695 12753 ft 172 kts 132°
2026-05-06 15:14 49.91642 12.21247 12758 ft 172 kts 132°
2026-05-06 15:14 49.90986 12.22800 12757 ft 172 kts 132°
2026-05-06 15:15 49.90330 12.24353 12753 ft 172 kts 132°
2026-05-06 15:15 49.89673 12.25903 12754 ft 172 kts 132°
2026-05-06 15:15 49.89018 12.27450 12754 ft 172 kts 132°
2026-05-06 15:15 49.88362 12.28999 12757 ft 172 kts 132°
2026-05-06 15:16 49.87706 12.30545 12755 ft 172 kts 132°
2026-05-06 15:16 49.87049 12.32094 12753 ft 172 kts 132°
2026-05-06 15:16 49.86392 12.33641 12749 ft 172 kts 132°
2026-05-06 15:16 49.85732 12.35194 12754 ft 173 kts 132°
2026-05-06 15:17 49.85071 12.36750 12750 ft 173 kts 132°
2026-05-06 15:17 49.84408 12.38310 12755 ft 174 kts 132°
2026-05-06 15:17 49.83744 12.39873 12756 ft 174 kts 132°